DW1105 Weather Reports


Display with metric or nautical units.
time (UTC)temp
F
wind
direction
speed
MPH
gust
MPH
rain 1hr
in
rain 24hr
in
rain mn
in
humidity
%
barometer
mb
20260831203311 73 320 0.0 2.0 0.00 0.01 0.00 82 1018.8
20260831202826 73 320 0.0 3.0 0.00 0.01 0.00 82 1018.9
20260831202322 73 317 1.0 3.0 0.00 0.01 0.00 82 1019.0
20260831201823 73 13 0.0 2.0 0.00 0.01 0.00 82 1018.8
20260831201320 73 103 0.0 3.0 0.00 0.01 0.00 83 1018.8
20260831200816 72 305 1.0 3.0 0.00 0.01 0.00 85 1018.9
20260831200313 72 29 0.0 2.0 0.00 0.01 0.00 84 1019.0
20260831195828 72 329 0.0 1.0 0.00 0.01 0.00 86 1019.1
20260831195324 71 329 0.0 2.0 0.00 0.01 0.00 85 1019.1
20260831194820 71 329 0.0 3.0 0.00 0.01 0.00 86 1019.2
20260831194320 71 336 1.0 3.0 0.00 0.01 0.00 86 1019.4
20260831193816 71 330 1.0 3.0 0.00 0.01 0.00 85 1019.6
20260831193313 72 360 0.0 3.0 0.00 0.01 0.00 85 1019.6
20260831192829 72 286 1.0 3.0 0.00 0.01 0.00 84 1019.6
20260831192326 73 188 0.0 7.0 0.00 0.01 0.00 83 1019.7
20260831191823 73 187 1.0 2.0 0.00 0.01 0.00 80 1019.7
20260831191318 74 281 0.0 1.0 0.00 0.01 0.00 80 1019.6
20260831190819 74 281 0.0 0.0 0.00 0.01 0.00 79 1019.7
20260831190315 74 281 0.0 0.0 0.00 0.01 0.00 79 1019.7
20260831185811 74 281 0.0 2.0 0.00 0.01 0.00 78 1019.7
20260831185328 74 276 0.0 2.0 0.00 0.01 0.00 77 1019.7
20260831184825 74 258 0.0 0.0 0.00 0.01 0.00 78 1019.7
20260831184320 74 258 0.0 0.0 0.00 0.01 0.00 78 1019.7
20260831183817 74 258 0.0 0.0 0.00 0.01 0.00 77 1019.7
20260831183317 74 258 0.0 0.0 0.00 0.01 0.00 77 1019.7
20260831182811 74 258 0.0 0.0 0.00 0.01 0.00 77 1019.5
20260831182328 75 258 0.0 0.0 0.00 0.01 0.00 78 1019.5
20260831181825 75 258 0.0 0.0 0.00 0.01 0.00 77 1019.5
20260831181320 75 258 0.0 0.0 0.00 0.01 0.00 76 1019.6
20260831180817 75 258 0.0 0.0 0.00 0.01 0.00 76 1019.6
20260831180313 75 258 0.0 0.0 0.00 0.01 0.00 74 1019.8
20260831175813 75 258 0.0 0.0 0.00 0.01 0.00 73 1019.8
20260831175330 76 258 0.0 0.0 0.00 0.01 0.00 71 1019.9
20260831174826 76 258 0.0 0.0 0.00 0.01 0.00 71 1020.0
20260831174322 76 258 0.0 1.0 0.00 0.01 0.00 69 1020.0
20260831173819 76 258 0.0 1.0 0.00 0.01 0.00 70 1019.9
20260831173315 76 351 0.0 0.0 0.00 0.01 0.00 71 1019.9
20260831172812 76 345 0.0 1.0 0.00 0.01 0.00 70 1019.9
20260831172313 76 317 0.0 1.0 0.00 0.01 0.00 72 1019.9
20260831171829 76 317 0.0 2.0 0.00 0.01 0.00 69 1019.8
20260831171324 76 317 1.0 2.0 0.00 0.01 0.00 69 1019.8
20260831170821 76 306 0.0 0.0 0.00 0.01 0.00 70 1019.8
20260831170317 76 305 0.0 1.0 0.00 0.01 0.00 71 1019.9
20260831165811 76 5 0.0 2.0 0.00 0.01 0.00 68 1019.9
20260831165328 76 5 0.0 2.0 0.00 0.01 0.00 67 1019.9
20260831164828 77 208 1.0 3.0 0.00 0.01 0.00 68 1019.9
20260831164324 76 130 0.0 3.0 0.00 0.01 0.00 68 1019.9
20260831163820 76 360 0.0 4.0 0.00 0.01 0.00 71 1020.0
20260831163317 76 360 2.0 4.0 0.00 0.01 0.00 71 1019.9
20260831162813 75 14 0.0 3.0 0.00 0.01 0.00 70 1019.9
20260831162329 75 96 1.0 3.0 0.00 0.01 0.00 70 1019.9
20260831161825 76 281 1.0 4.0 0.00 0.01 0.00 69 1020.0
20260831161324 76 102 3.0 4.0 0.00 0.01 0.00 70 1019.9
20260831160821 76 321 1.0 2.0 0.00 0.01 0.00 72 1020.0
20260831160317 75 336 0.0 3.0 0.00 0.01 0.00 71 1020.1
20260831155812 75 304 1.0 4.0 0.00 0.01 0.00 70 1020.1
20260831155329 75 5 0.0 4.0 0.00 0.01 0.00 69 1020.1
20260831154825 76 81 0.0 4.0 0.00 0.01 0.00 69 1020.1
20260831154320 75 74 0.0 6.0 0.00 0.01 0.00 69 1020.2
20260831153821 76 105 3.0 6.0 0.00 0.01 0.00 68 1020.4
20260831153317 76 56 1.0 2.0 0.00 0.01 0.00 68 1020.3
20260831152812 75 92 0.0 4.0 0.00 0.01 0.00 72 1020.3
20260831152329 75 76 1.0 4.0 0.00 0.01 0.00 72 1020.4
20260831151825 75 349 1.0 4.0 0.00 0.01 0.00 71 1020.3
20260831151321 74 115 2.0 4.0 0.00 0.01 0.00 73 1020.3
20260831150818 74 69 1.0 3.0 0.00 0.01 0.00 73 1020.3
20260831150319 74 216 0.0 3.0 0.00 0.01 0.00 72 1020.4
20260831145814 74 282 0.0 4.0 0.00 0.01 0.00 72 1020.5
20260831145311 75 5 1.0 4.0 0.00 0.01 0.00 72 1020.5
20260831144827 74 109 1.0 3.0 0.00 0.01 0.00 72 1020.4
20260831144323 74 98 1.0 3.0 0.00 0.01 0.00 72 1020.5
20260831143820 73 5 0.0 1.0 0.00 0.01 0.00 73 1020.5
20260831143316 73 64 0.0 4.0 0.00 0.01 0.00 75 1020.6
20260831142816 74 74 1.0 4.0 0.00 0.01 0.00 72 1020.6
20260831142313 74 140 1.0 4.0 0.00 0.01 0.00 74 1020.7
20260831141810 74 122 1.0 5.0 0.00 0.01 0.00 76 1020.7
20260831141326 73 57 1.0 5.0 0.00 0.01 0.00 74 1020.8
20260831140823 73 331 0.0 2.0 0.00 0.01 0.00 76 1020.7
20260831140320 72 84 1.0 2.0 0.00 0.01 0.00 77 1020.6
20260831135814 72 5 0.0 3.0 0.00 0.01 0.00 78 1020.5
20260831135314 72 101 1.0 4.0 0.00 0.01 0.00 78 1020.5
20260831134811 71 123 1.0 4.0 0.00 0.01 0.00 79 1020.6
20260831134327 71 106 0.0 2.0 0.00 0.01 0.00 79 1020.6
20260831133823 71 284 0.0 2.0 0.00 0.01 0.00 80 1020.6
20260831133320 71 150 0.0 1.0 0.00 0.01 0.00 80 1020.4
20260831132815 71 154 0.0 2.0 0.00 0.01 0.00 80 1020.3
20260831132312 71 118 0.0 2.0 0.00 0.01 0.00 80 1020.4
20260831131813 71 141 0.0 1.0 0.00 0.01 0.00 80 1020.4
20260831131328 71 141 0.0 4.0 0.00 0.01 0.00 81 1020.3
20260831130824 71 335 2.0 4.0 0.00 0.01 0.00 80 1020.4
20260831130321 70 112 1.0 3.0 0.00 0.01 0.00 81 1020.4
20260831125816 70 88 0.0 3.0 0.00 0.01 0.00 82 1020.4
20260831125313 70 19 0.0 3.0 0.00 0.01 0.00 82 1020.5
20260831124830 69 314 0.0 1.0 0.00 0.01 0.00 81 1020.5
20260831124325 69 302 0.0 0.0 0.00 0.01 0.00 82 1020.6
20260831123825 69 302 0.0 2.0 0.00 0.01 0.00 83 1020.6
20260831123322 69 302 1.0 2.0 0.00 0.01 0.00 83 1020.6
20260831122817 68 319 1.0 2.0 0.00 0.01 0.00 83 1020.5
20260831122314 68 320 0.0 3.0 0.00 0.01 0.00 85 1020.5
20260831121811 68 318 1.0 3.0 0.00 0.01 0.00 85 1020.4
20260831121325 68 348 1.0 3.0 0.00 0.01 0.00 85 1020.4
20260831120822 68 331 1.0 3.0 0.00 0.01 0.00 86 1020.5
20260831120322 68 321 0.0 3.0 0.00 0.01 0.00 86 1020.4
20260831115818 68 316 1.0 3.0 0.00 0.01 0.00 86 1020.4
20260831115315 68 5 0.0 0.0 0.00 0.01 0.00 86 1020.3
20260831114812 67 69 0.0 0.0 0.00 0.01 0.00 87 1020.3
20260831114328 67 70 0.0 0.0 0.00 0.01 0.00 86 1020.3
20260831113824 67 70 0.0 0.0 0.00 0.01 0.00 86 1020.3
20260831113321 67 51 0.0 0.0 0.00 0.01 0.00 86 1020.3
20260831112819 67 51 0.0 0.0 0.00 0.01 0.00 86 1020.3
20260831112317 67 51 0.0 0.0 0.00 0.01 0.00 87 1020.2
20260831111813 67 51 0.0 0.0 0.00 0.01 0.00 87 1020.0
20260831111328 67 326 0.0 0.0 0.00 0.01 0.00 87 1019.8
20260831110825 67 326 0.0 0.0 0.00 0.01 0.00 87 1019.8
20260831110321 67 326 0.0 0.0 0.00 0.01 0.00 87 1019.6
20260831105817 66 326 0.0 0.0 0.00 0.01 0.00 87 1019.6
20260831105328 66 326 0.0 0.0 0.00 0.01 0.00 87 1019.7
20260831104824 66 326 0.0 0.0 0.00 0.01 0.00 87 1019.6
20260831104319 66 326 0.0 0.0 0.00 0.01 0.00 87 1019.7
20260831103815 67 326 0.0 0.0 0.00 0.01 0.00 86 1019.9
20260831103329 67 326 0.0 0.0 0.00 0.01 0.00 86 1019.8
20260831102823 67 326 0.0 0.0 0.00 0.01 0.00 86 1019.6
20260831102320 66 326 0.0 0.0 0.00 0.01 0.00 86 1019.5
20260831101819 67 344 0.0 0.0 0.00 0.01 0.00 85 1019.5
20260831101315 67 344 0.0 0.0 0.00 0.01 0.00 84 1019.3
20260831100812 67 344 0.0 2.0 0.00 0.01 0.00 83 1019.3
20260831100328 68 344 0.0 4.0 0.00 0.01 0.00 84 1019.1
20260831095823 68 323 2.0 4.0 0.00 0.01 0.00 83 1019.1
20260831095320 68 326 2.0 4.0 0.00 0.01 0.00 83 1019.1
20260831094816 68 294 0.0 2.0 0.00 0.01 0.00 84 1019.1
20260831094316 67 243 1.0 3.0 0.00 0.01 0.00 83 1019.1
20260831093813 67 329 1.0 3.0 0.00 0.01 0.00 83 1019.1
20260831093329 68 309 1.0 3.0 0.00 0.01 0.00 84 1018.9
20260831092825 68 338 1.0 3.0 0.00 0.01 0.00 84 1018.8
20260831092322 68 328 0.0 3.0 0.00 0.01 0.00 84 1018.8
20260831091819 68 301 1.0 4.0 0.00 0.01 0.00 83 1018.9
20260831091314 68 281 2.0 4.0 0.00 0.01 0.00 83 1018.8
20260831090815 68 296 1.0 4.0 0.00 0.01 0.00 83 1018.8
20260831090310 68 306 2.0 4.0 0.00 0.01 0.00 83 1018.9
20260831085826 68 360 2.0 4.0 0.00 0.01 0.00 82 1018.8
20260831085323 68 333 3.0 4.0 0.00 0.01 0.00 82 1018.7
20260831084819 69 360 1.0 5.0 0.00 0.01 0.00 83 1018.8
20260831084314 69 348 2.0 5.0 0.00 0.01 0.00 83 1018.8
20260831083811 69 308 3.0 6.0 0.00 0.01 0.00 82 1018.7
20260831083311 68 314 3.0 6.0 0.00 0.01 0.00 82 1018.8
20260831082826 68 304 3.0 4.0 0.00 0.01 0.00 82 1018.9
20260831082323 69 332 2.0 4.0 0.00 0.01 0.00 82 1018.9
20260831081820 69 316 1.0 3.0 0.00 0.01 0.00 81 1019.0
20260831081315 69 329 0.0 2.0 0.00 0.01 0.00 81 1019.0
20260831080812 69 329 0.0 2.0 0.00 0.01 0.00 81 1019.0
20260831080329 69 338 1.0 2.0 0.00 0.01 0.00 82 1019.0
20260831075823 69 317 0.0 3.0 0.00 0.01 0.00 81 1018.9
20260831075323 69 317 1.0 3.0 0.00 0.01 0.00 81 1018.8
20260831074820 69 279 0.0 2.0 0.00 0.01 0.00 81 1018.9
20260831074315 69 319 0.0 2.0 0.00 0.01 0.00 81 1018.9
20260831073812 69 344 0.0 3.0 0.00 0.01 0.00 81 1018.9
20260831073328 69 317 0.0 4.0 0.00 0.01 0.00 81 1018.8
20260831072823 69 311 1.0 4.0 0.00 0.01 0.00 81 1018.9
20260831072320 69 332 0.0 4.0 0.00 0.01 0.00 80 1018.8
20260831071820 69 350 1.0 4.0 0.00 0.01 0.00 80 1018.9
20260831071315 70 309 2.0 4.0 0.00 0.01 0.00 81 1018.9
20260831070812 70 336 1.0 5.0 0.00 0.01 0.00 80 1018.9
20260831070328 70 351 1.0 5.0 0.00 0.01 0.00 81 1018.9
20260831065824 70 342 1.0 3.0 0.00 0.01 0.00 80 1019.0
20260831065320 70 305 2.0 5.0 0.00 0.01 0.00 80 1019.0
20260831064817 70 329 2.0 5.0 0.00 0.01 0.00 80 1019.0
20260831064316 70 355 1.0 4.0 0.00 0.01 0.00 80 1019.0
20260831063812 70 333 1.0 4.0 0.00 0.01 0.00 80 1019.1
20260831063329 70 329 0.0 3.0 0.00 0.01 0.00 81 1019.0
20260831062823 70 331 1.0 4.0 0.00 0.01 0.00 80 1019.1
20260831062319 70 320 1.0 4.0 0.00 0.01 0.00 79 1019.1
20260831061815 70 267 0.0 3.0 0.00 0.01 0.00 79 1019.1
20260831061311 70 260 1.0 3.0 0.00 0.01 0.00 80 1019.1
20260831060811 70 319 1.0 4.0 0.00 0.01 0.00 80 1019.0
20260831060327 70 335 2.0 4.0 0.00 0.01 0.00 80 1019.1
20260831055824 70 290 1.0 4.0 0.00 0.01 0.00 80 1019.0
20260831055321 70 329 1.0 3.0 0.00 0.01 0.00 80 1019.1
20260831054816 70 306 1.0 4.0 0.00 0.01 0.00 80 1019.1
20260831054312 70 342 3.0 4.0 0.00 0.01 0.00 80 1019.0
20260831053829 70 248 2.0 4.0 0.00 0.01 0.00 80 1019.1
20260831053329 70 329 1.0 4.0 0.00 0.01 0.00 80 1019.0
20260831052825 70 279 2.0 4.0 0.00 0.01 0.00 80 1019.1
20260831052321 70 285 1.0 4.0 0.00 0.01 0.00 81 1019.4
20260831051816 70 318 1.0 3.0 0.00 0.01 0.00 81 1019.3
20260831051311 70 355 0.0 3.0 0.00 0.01 0.00 81 1019.1
20260831050828 70 272 1.0 4.0 0.00 0.01 0.00 81 1019.0
20260831050324 70 333 2.0 4.0 0.00 0.01 0.00 81 1019.0
20260831045824 70 214 1.0 4.0 0.00 0.01 0.00 82 1019.0
20260831045320 70 323 1.0 4.0 0.00 0.01 0.00 82 1019.1
20260831044815 70 324 2.0 4.0 0.00 0.01 0.00 82 1019.2
20260831044312 70 258 2.0 5.0 0.00 0.01 0.00 82 1019.1
20260831043828 70 319 2.0 5.0 0.00 0.01 0.00 82 1019.0
20260831043323 71 313 1.0 4.0 0.00 0.01 0.00 82 1019.1
20260831042818 71 310 2.0 4.0 0.00 0.01 0.00 82 1019.0
20260831042319 71 355 1.0 4.0 0.00 0.01 0.00 82 1019.0
20260831041815 71 280 1.0 3.0 0.00 0.01 0.00 83 1018.9
20260831041330 71 341 0.0 2.0 0.00 0.01 0.00 83 1018.9
20260831040826 71 295 0.0 2.0 0.00 0.01 0.00 83 1018.9
20260831040323 71 294 0.0 2.0 0.00 0.01 0.00 84 1019.0
20260831035818 71 288 0.0 2.0 0.00 0.01 0.01 83 1018.9
20260831035314 71 290 0.0 2.0 0.00 0.01 0.01 83 1018.9
20260831034814 71 296 0.0 4.0 0.00 0.01 0.01 83 1018.9
20260831034330 71 348 1.0 4.0 0.00 0.01 0.01 84 1019.0
20260831033827 72 333 1.0 4.0 0.00 0.01 0.01 84 1019.0
20260831033323 72 302 1.0 4.0 0.00 0.01 0.01 84 1018.9
20260831032818 71 355 1.0 4.0 0.00 0.01 0.01 86 1018.9
20260831032314 72 327 1.0 4.0 0.00 0.01 0.01 86 1018.9
20260831031810 72 350 2.0 4.0 0.00 0.01 0.01 87 1018.9
20260831031325 72 324 2.0 4.0 0.00 0.01 0.01 87 1018.9
20260831030826 72 325 2.0 4.0 0.00 0.01 0.01 88 1018.9
20260831030323 72 325 0.0 2.0 0.00 0.01 0.01 88 1018.9
20260831025817 72 309 1.0 2.0 0.00 0.01 0.01 89 1019.0
20260831025314 72 342 0.0 2.0 0.00 0.01 0.01 89 1019.0
20260831024810 72 342 1.0 3.0 0.00 0.01 0.01 89 1019.0
20260831024325 72 350 0.0 3.0 0.00 0.01 0.01 89 1019.1
20260831023822 72 340 0.0 0.0 0.00 0.01 0.01 88 1019.0
20260831023322 72 340 0.0 0.0 0.00 0.01 0.01 88 1019.1
20260831022817 72 340 0.0 1.0 0.00 0.01 0.01 88 1019.1
20260831022314 73 340 0.0 1.0 0.00 0.01 0.01 88 1019.1
20260831021810 73 340 0.0 4.0 0.01 0.01 0.01 88 1019.1
20260831021325 72 5 2.0 4.0 0.01 0.01 0.01 89 1019.2
20260831020822 72 250 0.0 0.0 0.01 0.01 0.01 90 1019.3
20260831020318 72 242 0.0 0.0 0.01 0.01 0.01 91 1019.3
20260831015818 72 220 0.0 0.0 0.01 0.01 0.01 92 1019.5
20260831015314 72 220 0.0 0.0 0.01 0.01 0.01 92 1019.4
20260831014810 72 220 0.0 0.0 0.01 0.01 0.01 92 1019.4
20260831014326 72 220 0.0 0.0 0.01 0.01 0.01 92 1019.5
20260831013823 72 220 0.0 0.0 0.01 0.01 0.01 92 1019.4
20260831013319 72 220 0.0 0.0 0.01 0.01 0.01 92 1019.4
20260831012815 72 220 0.0 0.0 0.01 0.01 0.01 92 1019.4
20260831012315 72 220 0.0 0.0 0.01 0.01 0.01 92 1019.4
20260831011811 72 220 0.0 0.0 0.00 0.00 0.00 92 1019.3
20260831011323 72 220 0.0 0.0 0.00 0.00 0.00 91 1019.3
20260831010818 72 220 0.0 0.0 0.00 0.00 0.00 91 1019.0
20260831010315 72 220 0.0 0.0 0.00 0.00 0.00 91 1019.0
20260831005829 72 220 0.0 0.0 0.00 0.00 0.00 91 1019.0
20260831005325 73 220 0.0 0.0 0.00 0.00 0.00 91 1018.8
20260831004826 73 220 0.0 0.0 0.00 0.00 0.00 91 1018.8
20260831004320 73 220 0.0 0.0 0.00 0.00 0.00 90 1018.7
20260831003817 73 220 0.0 0.0 0.00 0.00 0.00 90 1018.7
20260831003314 73 220 0.0 0.0 0.00 0.00 0.00 89 1018.6
20260831002829 73 220 0.0 0.0 0.00 0.00 0.00 89 1018.6
20260831002326 73 220 0.0 0.0 0.00 0.00 0.00 89 1018.5
20260831001822 74 220 0.0 0.0 0.00 0.00 0.00 88 1018.4
20260831001322 74 221 0.0 0.0 0.00 0.00 0.00 88 1018.4
20260831000819 74 221 0.0 0.0 0.00 0.00 0.00 87 1018.4
20260831000318 74 221 0.0 0.0 0.00 0.00 0.00 87 1018.4
20260830235811 74 221 0.0 0.0 0.00 0.00 0.00 86 1018.3
20260830235348 74 221 0.0 0.0 0.00 0.00 0.00 85 1018.2
20260830234823 75 221 0.0 0.0 0.00 0.00 0.00 85 1018.2
20260830234318 75 221 0.0 0.0 0.00 0.00 0.00 84 1018.1
20260830233814 75 221 0.0 0.0 0.00 0.00 0.00 83 1018.0
20260830233314 75 221 0.0 0.0 0.00 0.00 0.00 83 1018.0
20260830232830 75 221 0.0 0.0 0.00 0.00 0.00 83 1018.1
20260830232326 75 221 0.0 0.0 0.00 0.00 0.00 82 1018.1
20260830231822 75 221 0.0 1.0 0.00 0.00 0.00 82 1018.0
20260830231317 76 221 0.0 1.0 0.00 0.00 0.00 82 1018.0
20260830230813 76 240 0.0 2.0 0.00 0.00 0.00 82 1018.1
20260830230310 76 167 0.0 2.0 0.00 0.00 0.00 82 1018.1
20260830225830 76 102 0.0 2.0 0.00 0.00 0.00 81 1018.2
20260830225327 76 207 0.0 1.0 0.00 0.00 0.00 81 1018.2
20260830224823 76 281 0.0 0.0 0.00 0.00 0.00 81 1018.2
20260830224318 76 19 0.0 0.0 0.00 0.00 0.00 81 1018.3
20260830223814 76 283 0.0 1.0 0.00 0.00 0.00 81 1018.2
20260830223311 76 270 0.0 0.0 0.00 0.00 0.00 81 1018.2
20260830222826 76 215 0.0 0.0 0.00 0.00 0.00 81 1018.2
20260830222327 77 215 0.0 1.0 0.00 0.00 0.00 80 1018.1
20260830221823 77 207 0.0 1.0 0.00 0.00 0.00 81 1018.2
20260830221320 77 220 0.0 1.0 0.00 0.00 0.00 80 1018.2
20260830220836 77 230 0.0 0.0 0.00 0.00 0.00 80 1018.2
20260830220311 77 230 0.0 0.0 0.00 0.00 0.00 80 1018.2
20260830215826 77 230 0.0 0.0 0.00 0.00 0.00 80 1018.2
20260830215344 77 246 0.0 2.0 0.00 0.00 0.00 80 1018.1